Time,TemperatureF,DewpointF,PressureIn,WindDirection,WindDirectionDegrees,WindSpeedMPH,WindSpeedGustMPH,Humidity,HourlyPrecipIn,Conditions,Clouds,dailyrainin,SoftwareType,DateUTC
2013-02-18 00:01:00,39.0,37.0,30.09,South,180,0.0,0.0,94,0.00,,,0.01,,2013-02-18 08:01:00,
2013-02-18 00:11:00,39.0,37.0,30.09,South,180,0.0,0.0,94,0.00,,,0.01,,2013-02-18 08:11:00,
2013-02-18 00:21:00,39.0,37.0,30.09,South,180,0.0,0.0,94,0.00,,,0.01,,2013-02-18 08:21:00,
2013-02-18 00:32:00,39.0,37.0,30.09,South,180,0.0,0.0,94,0.00,,,0.01,,2013-02-18 08:32:00,
2013-02-18 00:41:00,39.0,37.0,30.09,South,180,0.0,0.0,94,0.00,,,0.01,,2013-02-18 08:41:00,
2013-02-18 01:02:00,39.0,37.0,30.07,South,180,0.0,0.0,94,0.00,,,0.01,,2013-02-18 09:02:00,
2013-02-18 01:11:00,39.0,37.0,30.07,South,180,0.0,0.0,94,0.00,,,0.01,,2013-02-18 09:11:00,
2013-02-18 01:22:00,39.0,37.0,30.06,South,180,0.0,1.0,94,0.00,,,0.01,,2013-02-18 09:22:00,
2013-02-18 01:31:00,38.0,36.0,30.05,South,180,0.0,1.0,94,0.00,,,0.01,,2013-02-18 09:31:00,
2013-02-18 01:41:00,38.0,36.0,30.05,South,180,0.0,1.0,94,0.00,,,0.01,,2013-02-18 09:41:00,
2013-02-18 01:52:00,38.0,36.0,30.05,South,180,0.0,1.0,94,0.00,,,0.01,,2013-02-18 09:52:00,
2013-02-18 02:01:00,38.0,36.0,30.05,South,180,0.0,0.0,93,0.00,,,0.01,,2013-02-18 10:01:00,
2013-02-18 02:11:00,38.0,36.0,30.05,South,180,0.0,0.0,93,0.00,,,0.01,,2013-02-18 10:11:00,
2013-02-18 02:21:00,38.0,36.0,30.04,South,180,0.0,0.0,93,0.00,,,0.01,,2013-02-18 10:21:00,
2013-02-18 02:31:00,38.0,36.0,30.04,South,180,0.0,0.0,93,0.00,,,0.01,,2013-02-18 10:31:00,
2013-02-18 02:41:00,38.0,36.0,30.04,South,180,0.0,0.0,93,0.00,,,0.01,,2013-02-18 10:41:00,
2013-02-18 02:52:00,38.0,36.0,30.04,South,180,0.0,0.0,93,0.00,,,0.01,,2013-02-18 10:52:00,
2013-02-18 03:01:00,37.0,35.0,30.03,South,180,0.0,0.0,94,0.00,,,0.01,,2013-02-18 11:01:00,
2013-02-18 03:11:00,37.0,35.0,30.03,South,180,0.0,0.0,94,0.00,,,0.01,,2013-02-18 11:11:00,
2013-02-18 03:21:00,37.0,36.0,30.03,South,180,0.0,0.0,95,0.00,,,0.01,,2013-02-18 11:21:00,
2013-02-18 03:32:00,37.0,36.0,30.01,South,180,0.0,0.0,96,0.00,,,0.01,,2013-02-18 11:32:00,
2013-02-18 03:42:00,37.0,36.0,30.01,South,180,0.0,0.0,96,0.00,,,0.01,,2013-02-18 11:42:00,
2013-02-18 03:53:00,37.0,36.0,30.01,South,180,0.0,0.0,96,0.00,,,0.01,,2013-02-18 11:53:00,
2013-02-18 04:01:00,37.0,36.0,30.01,South,180,0.0,0.0,96,0.00,,,0.01,,2013-02-18 12:01:00,
2013-02-18 04:11:00,37.0,36.0,30.01,South,180,0.0,0.0,96,0.00,,,0.01,,2013-02-18 12:11:00,
2013-02-18 04:22:00,37.0,36.0,30.00,South,180,0.0,0.0,97,0.00,,,0.01,,2013-02-18 12:22:00,
2013-02-18 04:32:00,36.0,35.0,29.99,South,180,0.0,0.0,97,0.00,,,0.01,,2013-02-18 12:32:00,
2013-02-18 04:42:00,36.0,35.0,29.99,South,180,0.0,0.0,97,0.00,,,0.01,,2013-02-18 12:42:00,
2013-02-18 04:53:00,36.0,35.0,29.99,South,180,0.0,0.0,97,0.00,,,0.01,,2013-02-18 12:53:00,
2013-02-18 05:02:00,36.0,35.0,29.98,South,180,0.0,0.0,97,0.00,,,0.01,,2013-02-18 13:02:00,
2013-02-18 05:11:00,36.0,35.0,29.98,South,180,0.0,0.0,97,0.00,,,0.01,,2013-02-18 13:11:00,
2013-02-18 05:22:00,36.0,35.0,29.98,South,180,0.0,0.0,97,0.00,,,0.01,,2013-02-18 13:22:00,
2013-02-18 05:32:00,36.0,35.0,29.98,South,180,0.0,0.0,97,0.00,,,0.01,,2013-02-18 13:32:00,
2013-02-18 05:41:00,36.0,35.0,29.98,South,180,0.0,0.0,97,0.00,,,0.01,,2013-02-18 13:41:00,
2013-02-18 05:53:00,35.0,34.0,29.98,South,180,0.0,0.0,97,0.00,,,0.01,,2013-02-18 13:53:00,
2013-02-18 06:02:00,35.0,34.0,29.98,South,180,0.0,0.0,97,0.00,,,0.01,,2013-02-18 14:02:00,
2013-02-18 06:11:00,35.0,34.0,29.98,South,180,0.0,0.0,97,0.00,,,0.01,,2013-02-18 14:11:00,
2013-02-18 06:21:00,35.0,34.0,29.97,South,180,0.0,0.0,98,0.00,,,0.01,,2013-02-18 14:21:00,
2013-02-18 06:31:00,36.0,35.0,29.97,South,180,0.0,0.0,98,0.00,,,0.01,,2013-02-18 14:31:00,
2013-02-18 06:42:00,36.0,35.0,29.97,South,180,0.0,0.0,98,0.00,,,0.01,,2013-02-18 14:42:00,
2013-02-18 06:53:00,36.0,35.0,29.97,South,180,0.0,0.0,98,0.00,,,0.01,,2013-02-18 14:53:00,
2013-02-18 07:01:00,36.0,35.0,29.97,South,180,0.0,0.0,98,0.00,,,0.01,,2013-02-18 15:01:00,
2013-02-18 07:11:00,36.0,35.0,29.97,South,180,0.0,0.0,98,0.00,,,0.01,,2013-02-18 15:11:00,
2013-02-18 07:21:00,36.0,35.0,29.96,South,180,0.0,0.0,98,0.00,,,0.01,,2013-02-18 15:21:00,
2013-02-18 07:31:00,36.0,35.0,29.96,South,180,0.0,0.0,98,0.00,,,0.01,,2013-02-18 15:31:00,
2013-02-18 07:41:00,36.0,35.0,29.96,South,180,0.0,0.0,98,0.00,,,0.01,,2013-02-18 15:41:00,
2013-02-18 07:52:00,36.0,35.0,29.97,South,180,0.0,0.0,98,0.00,,,0.01,,2013-02-18 15:52:00,
2013-02-18 08:01:00,36.0,35.0,29.96,South,180,0.0,0.0,98,0.00,,,0.01,,2013-02-18 16:01:00,
2013-02-18 08:11:00,36.0,35.0,29.96,South,180,0.0,0.0,98,0.00,,,0.01,,2013-02-18 16:11:00,
2013-02-18 08:21:00,36.0,35.0,29.96,South,180,0.0,0.0,98,0.00,,,0.01,,2013-02-18 16:21:00,
2013-02-18 08:31:00,37.0,36.0,29.97,South,180,0.0,1.0,98,0.00,,,0.01,,2013-02-18 16:31:00,
2013-02-18 08:42:00,37.0,36.0,29.97,South,180,0.0,1.0,98,0.00,,,0.01,,2013-02-18 16:42:00,
2013-02-18 08:52:00,37.0,36.0,29.96,South,180,0.0,0.0,98,0.00,,,0.01,,2013-02-18 16:52:00,
2013-02-18 09:02:00,37.0,36.0,29.97,South,180,0.0,0.0,98,0.00,,,0.01,,2013-02-18 17:02:00,
2013-02-18 09:11:00,37.0,36.0,29.97,South,180,0.0,0.0,98,0.00,,,0.01,,2013-02-18 17:11:00,
2013-02-18 09:21:00,38.0,37.0,29.96,South,180,0.0,1.0,98,0.00,,,0.01,,2013-02-18 17:21:00,
2013-02-18 09:31:00,38.0,37.0,29.96,East,96,0.0,1.0,98,0.00,,,0.01,,2013-02-18 17:31:00,
2013-02-18 09:42:00,38.0,37.0,29.96,East,96,0.0,1.0,98,0.00,,,0.01,,2013-02-18 17:42:00,
2013-02-18 09:52:00,39.0,38.0,29.95,East,91,0.0,1.0,96,0.00,,,0.01,,2013-02-18 17:52:00,
2013-02-18 10:01:00,39.0,37.0,29.94,ENE,65,0.0,2.0,94,0.00,,,0.01,,2013-02-18 18:01:00,
2013-02-18 10:11:00,39.0,37.0,29.94,ENE,65,0.0,2.0,94,0.00,,,0.01,,2013-02-18 18:11:00,
2013-02-18 10:22:00,40.0,38.0,29.94,SW,226,0.0,5.0,93,0.00,,,0.01,,2013-02-18 18:22:00,
2013-02-18 10:31:00,40.0,38.0,29.95,SSW,201,1.0,4.0,92,0.00,,,0.01,,2013-02-18 18:31:00,
2013-02-18 10:42:00,40.0,38.0,29.95,SSW,201,1.0,4.0,92,0.00,,,0.01,,2013-02-18 18:42:00,
2013-02-18 10:52:00,40.0,38.0,29.95,WSW,248,0.0,3.0,91,0.00,,,0.01,,2013-02-18 18:52:00,
2013-02-18 11:01:00,40.0,37.0,29.93,ENE,63,0.0,3.0,90,0.00,,,0.01,,2013-02-18 19:01:00,
2013-02-18 11:11:00,40.0,37.0,29.93,ENE,63,0.0,3.0,90,0.00,,,0.01,,2013-02-18 19:11:00,
2013-02-18 11:21:00,41.0,37.0,29.94,WSW,239,1.0,3.0,87,0.00,,,0.01,,2013-02-18 19:21:00,
2013-02-18 11:32:00,41.0,37.0,29.93,SSW,205,0.0,4.0,87,0.00,,,0.01,,2013-02-18 19:32:00,
2013-02-18 11:42:00,41.0,37.0,29.93,SSW,205,0.0,4.0,87,0.00,,,0.01,,2013-02-18 19:42:00,
2013-02-18 11:52:00,41.0,37.0,29.93,SSW,213,1.0,4.0,87,0.00,,,0.01,,2013-02-18 19:52:00,
2013-02-18 12:01:00,41.0,37.0,29.92,SSW,200,0.0,2.0,87,0.00,,,0.01,,2013-02-18 20:01:00,
2013-02-18 12:11:00,41.0,37.0,29.92,SSW,200,0.0,2.0,87,0.00,,,0.01,,2013-02-18 20:11:00,
2013-02-18 12:21:00,42.0,38.0,29.92,SW,229,2.0,4.0,86,0.00,,,0.01,,2013-02-18 20:21:00,
2013-02-18 12:31:00,42.0,38.0,29.91,WSW,257,1.0,4.0,86,0.00,,,0.01,,2013-02-18 20:31:00,
2013-02-18 12:41:00,42.0,38.0,29.91,WSW,257,1.0,4.0,86,0.00,,,0.01,,2013-02-18 20:41:00,
2013-02-18 12:53:00,42.0,38.0,29.91,SW,223,0.0,5.0,85,0.00,,,0.01,,2013-02-18 20:53:00,
2013-02-18 13:02:00,43.0,38.0,29.90,East,96,1.0,4.0,83,0.00,,,0.01,,2013-02-18 21:02:00,
2013-02-18 13:11:00,43.0,38.0,29.90,East,96,1.0,4.0,83,0.00,,,0.01,,2013-02-18 21:11:00,
2013-02-18 13:21:00,43.0,39.0,29.90,SSW,206,0.0,2.0,85,0.00,,,0.01,,2013-02-18 21:21:00,
2013-02-18 13:31:00,43.0,38.0,29.89,SSW,199,0.0,4.0,83,0.00,,,0.01,,2013-02-18 21:31:00,
2013-02-18 13:41:00,43.0,38.0,29.89,SSW,199,0.0,4.0,83,0.00,,,0.01,,2013-02-18 21:41:00,
2013-02-18 13:52:00,43.0,38.0,29.89,SW,226,1.0,4.0,81,0.00,,,0.01,,2013-02-18 21:52:00,
2013-02-18 14:01:00,43.0,37.0,29.89,South,190,1.0,6.0,79,0.00,,,0.01,,2013-02-18 22:01:00,
2013-02-18 14:11:00,43.0,38.0,29.88,SW,224,2.0,8.0,81,0.00,,,0.01,,2013-02-18 22:11:00,
2013-02-18 14:21:00,43.0,38.0,29.88,SW,224,2.0,8.0,81,0.00,,,0.01,,2013-02-18 22:21:00,
2013-02-18 14:32:00,44.0,39.0,29.88,SSW,211,0.0,3.0,81,0.00,,,0.01,,2013-02-18 22:32:00,
2013-02-18 14:42:00,44.0,39.0,29.88,SSW,211,0.0,3.0,81,0.00,,,0.01,,2013-02-18 22:42:00,
2013-02-18 14:53:00,44.0,38.0,29.87,South,175,3.0,5.0,78,0.00,,,0.01,,2013-02-18 22:53:00,
2013-02-18 15:01:00,44.0,38.0,29.87,SW,217,0.0,3.0,78,0.00,,,0.01,,2013-02-18 23:01:00,
2013-02-18 15:11:00,44.0,38.0,29.87,SW,217,0.0,3.0,78,0.00,,,0.01,,2013-02-18 23:11:00,
2013-02-18 15:22:00,44.0,38.0,29.87,SSW,208,2.0,6.0,79,0.00,,,0.01,,2013-02-18 23:22:00,
2013-02-18 15:31:00,42.0,38.0,29.86,South,185,0.0,7.0,86,0.00,,,0.01,,2013-02-18 23:31:00,
2013-02-18 15:42:00,42.0,38.0,29.86,South,185,0.0,7.0,86,0.00,,,0.01,,2013-02-18 23:42:00,
2013-02-18 15:53:00,43.0,39.0,29.86,SSW,209,0.0,3.0,85,0.00,,,0.01,,2013-02-18 23:53:00,
2013-02-18 16:01:00,43.0,38.0,29.85,SW,227,0.0,4.0,83,0.00,,,0.01,,2013-02-19 00:01:00,
2013-02-18 16:11:00,43.0,38.0,29.85,SW,227,0.0,4.0,83,0.00,,,0.01,,2013-02-19 00:11:00,
2013-02-18 16:22:00,43.0,38.0,29.85,SW,227,1.0,3.0,83,0.00,,,0.01,,2013-02-19 00:22:00,
2013-02-18 16:32:00,43.0,38.0,29.84,SW,227,0.0,3.0,83,0.00,,,0.01,,2013-02-19 00:32:00,
2013-02-18 16:42:00,43.0,38.0,29.84,SW,227,0.0,3.0,83,0.00,,,0.01,,2013-02-19 00:42:00,
2013-02-18 16:54:00,43.0,38.0,29.83,SW,227,0.0,2.0,83,0.00,,,0.01,,2013-02-19 00:54:00,
2013-02-18 17:02:00,44.0,39.0,29.82,SW,227,0.0,1.0,82,0.00,,,0.01,,2013-02-19 01:02:00,
2013-02-18 17:11:00,44.0,39.0,29.82,SW,227,0.0,1.0,82,0.00,,,0.01,,2013-02-19 01:11:00,
2013-02-18 17:22:00,43.0,38.0,29.82,SW,227,0.0,1.0,82,0.00,,,0.01,,2013-02-19 01:22:00,
2013-02-18 17:32:00,43.0,38.0,29.82,SW,227,0.0,0.0,82,0.00,,,0.01,,2013-02-19 01:32:00,
2013-02-18 17:42:00,43.0,38.0,29.82,SW,227,0.0,0.0,82,0.00,,,0.01,,2013-02-19 01:42:00,
2013-02-18 17:54:00,43.0,38.0,29.81,SW,227,0.0,1.0,82,0.00,,,0.01,,2013-02-19 01:54:00,
2013-02-18 18:01:00,43.0,38.0,29.81,SW,227,0.0,0.0,82,0.00,,,0.01,,2013-02-19 02:01:00,
2013-02-18 18:11:00,43.0,38.0,29.81,SW,227,0.0,0.0,82,0.00,,,0.01,,2013-02-19 02:11:00,
2013-02-18 18:21:00,42.0,37.0,29.80,SW,227,0.0,0.0,82,0.00,,,0.01,,2013-02-19 02:21:00,
2013-02-18 18:32:00,42.0,37.0,29.80,SW,227,0.0,0.0,83,0.00,,,0.01,,2013-02-19 02:32:00,
2013-02-18 18:42:00,42.0,37.0,29.80,SW,227,0.0,0.0,83,0.00,,,0.01,,2013-02-19 02:42:00,
2013-02-18 18:54:00,41.0,36.0,29.79,SW,227,0.0,0.0,83,0.00,,,0.01,,2013-02-19 02:54:00,
2013-02-18 19:03:00,41.0,37.0,29.79,SW,227,0.0,0.0,84,0.00,,,0.01,,2013-02-19 03:03:00,
2013-02-18 19:12:00,41.0,37.0,29.79,SW,227,0.0,0.0,84,0.00,,,0.01,,2013-02-19 03:12:00,
2013-02-18 19:22:00,40.0,36.0,29.79,SW,227,0.0,0.0,85,0.00,,,0.01,,2013-02-19 03:22:00,
2013-02-18 19:54:00,40.0,36.0,29.78,SW,227,0.0,0.0,87,0.00,,,0.01,,2013-02-19 03:54:00,
2013-02-18 20:01:00,40.0,36.0,29.78,SW,227,0.0,0.0,87,0.00,,,0.01,,2013-02-19 04:01:00,
2013-02-18 20:12:00,40.0,36.0,29.78,SW,227,0.0,0.0,87,0.00,,,0.01,,2013-02-19 04:12:00,
2013-02-18 20:21:00,40.0,36.0,29.77,SW,227,0.0,0.0,87,0.00,,,0.01,,2013-02-19 04:21:00,
2013-02-18 20:32:00,40.0,36.0,29.77,SW,227,0.0,0.0,87,0.00,,,0.01,,2013-02-19 04:32:00,
2013-02-18 20:42:00,40.0,36.0,29.77,SW,227,0.0,0.0,87,0.00,,,0.01,,2013-02-19 04:42:00,
2013-02-18 20:53:00,40.0,37.0,29.77,SW,227,0.0,0.0,88,0.00,,,0.01,,2013-02-19 04:53:00,
2013-02-18 21:01:00,39.0,35.0,29.76,SW,227,0.0,0.0,87,0.00,,,0.01,,2013-02-19 05:01:00,
2013-02-18 21:12:00,39.0,35.0,29.76,SW,227,0.0,0.0,87,0.00,,,0.01,,2013-02-19 05:12:00,
2013-02-18 21:22:00,39.0,35.0,29.76,SW,227,0.0,0.0,87,0.00,,,0.00,,2013-02-19 05:22:00,
2013-02-18 21:32:00,39.0,35.0,29.75,SW,227,0.0,0.0,87,0.00,,,0.00,,2013-02-19 05:32:00,
2013-02-18 21:42:00,39.0,35.0,29.75,SW,227,0.0,0.0,87,0.00,,,0.00,,2013-02-19 05:42:00,
2013-02-18 21:52:00,39.0,35.0,29.76,SW,227,0.0,0.0,87,0.00,,,0.00,,2013-02-19 05:52:00,
2013-02-18 22:02:00,38.0,34.0,29.75,SW,227,0.0,0.0,87,0.00,,,0.00,,2013-02-19 06:02:00,
2013-02-18 22:11:00,38.0,34.0,29.75,SW,227,0.0,0.0,87,0.00,,,0.00,,2013-02-19 06:11:00,
2013-02-18 22:21:00,38.0,34.0,29.75,SW,227,0.0,0.0,87,0.00,,,0.00,,2013-02-19 06:21:00,
2013-02-18 22:32:00,38.0,34.0,29.75,SW,227,0.0,0.0,87,0.00,,,0.00,,2013-02-19 06:32:00,
2013-02-18 22:41:00,38.0,34.0,29.75,SW,227,0.0,0.0,87,0.00,,,0.00,,2013-02-19 06:41:00,
2013-02-18 23:32:00,36.0,34.0,29.74,SW,227,0.0,1.0,92,0.00,,,0.00,,2013-02-19 07:32:00,
2013-02-18 23:42:00,36.0,34.0,29.74,SW,227,0.0,1.0,92,0.00,,,0.00,,2013-02-19 07:42:00,
2013-02-18 23:52:00,36.0,34.0,29.74,SW,227,0.0,1.0,92,0.00,,,0.00,,2013-02-19 07:52:00,